Change the Weather History Date:

Friday, January 25, 2013

  Actual Average Record
Temperature  
Mean Temperature -16 °F -  
Max Temperature -7 °F 9 °F 26 °F (2012)
Min Temperature -25 °F -8 °F -38 °F (2004)
Degree Days  
Heating Degree Days 81    
Moisture  
Dew Point -24 °F    
Average Humidity 74    
Maximum Humidity 77    
Minimum Humidity 59    
Precipitation  
Precipitation 0.00 in - - ()
Sea Level Pressure  
Sea Level Pressure 30.30 in    
Wind  
Wind Speed 2 mph ()    
Max Wind Speed 6 mph    
Max Gust Speed -    
Visibility 7.8 miles    
Events Snow    
Averages and records for this station are not official NWS values.
T = Trace of Precipitation, MM = Missing Value Source: Averaged Metar Reports

Daily Weather History Graph

Daily Weather History Graph

Search for Another Location

Airport or City:

Trip Planner

Search our weather history database for the weather conditions in past years. The results will help you decide how hot, cold, wet, or windy it might be!

Date:

Astronomy

Jan. 25, 2013 Rise Set
Actual Time 8:28 AM CST 4:59 PM CST
Civil Twilight 7:49 AM CST 5:39 PM CST
Nautical Twilight 7:05 AM CST 6:22 PM CST
Astronomical Twilight 6:24 AM CST 7:04 PM CST
Moon 3:58 PM CST (1/25) 7:10 AM CST (1/25)
Length of Visible Light 9h 50m
Length of Day
8h 30m
Waxing Gibbous, 98% of the Moon is Illuminated
Jan 25
Waxing Gibbous
Jan 26
Full
Feb 3
Last Quarter
Feb 10
New
Feb 17
First Quarter

Hourly Weather History & Observations

Time (CST) Temp. Windchill Dew Point Humidity Pressure Visibility Wind Dir Wind Speed Gust Speed Precip Events Conditions
12:00 AM -13.0 °F -22.7 °F -18.4 °F 77% 30.25 in 9.0 mi ENE 3.5 mph - N/A Snow Light Snow
12:16 AM -13.0 °F - -18.4 °F 77% 30.25 in 9.0 mi Variable 2.3 mph - N/A   Clear
12:32 AM -13.0 °F - -18.4 °F 77% 30.25 in 9.0 mi Variable 2.3 mph - N/A Snow Light Snow
12:44 AM -13.0 °F - -18.4 °F 77% 30.25 in 9.0 mi Variable 2.3 mph - N/A   Scattered Clouds
12:49 AM -13.0 °F - -18.4 °F 77% 30.25 in 9.0 mi Variable 2.3 mph - N/A Snow Light Snow
1:00 AM -13.0 °F - -18.4 °F 77% 30.25 in 9.0 mi Variable 2.3 mph - N/A Snow Light Snow
2:00 AM -14.8 °F - -20.2 °F 77% 30.24 in 9.0 mi North 2.3 mph - N/A Snow Light Snow
2:07 AM -14.8 °F - -20.2 °F 77% 30.24 in 9.0 mi NNE 2.3 mph - N/A   Clear
3:00 AM -18.4 °F - -23.8 °F 76% 30.26 in 9.0 mi NNW 2.3 mph - N/A   Clear
4:00 AM -22.0 °F - -27.4 °F 76% 30.26 in 9.0 mi Calm Calm - N/A   Clear
5:00 AM -23.8 °F -35.0 °F -31.0 °F 69% 30.27 in 9.0 mi NNW 3.5 mph - N/A   Clear
7:00 AM -25.6 °F - -31.0 °F 76% 30.31 in 9.0 mi NNW 2.3 mph - N/A   Clear
8:00 AM -23.8 °F - -31.0 °F 69% 30.31 in 9.0 mi NNW 2.3 mph - N/A   Mostly Cloudy
8:39 AM -23.8 °F - -31.0 °F 69% 30.32 in 5.0 mi Calm Calm - N/A   Haze
8:44 AM -23.8 °F - -31.0 °F 69% 30.32 in 2.2 mi Calm Calm - N/A   Haze
8:50 AM -23.8 °F - -31.0 °F 69% 30.32 in 1.2 mi ENE 2.3 mph - N/A   Haze
9:00 AM -25.6 °F - -31.0 °F 76% 30.32 in 1.5 mi ENE 2.3 mph - N/A   Haze
9:05 AM -23.8 °F - -31.0 °F 69% 30.32 in 2.5 mi Calm Calm - N/A   Haze
9:06 AM -23.8 °F - -31.0 °F 69% 30.32 in 3.0 mi Calm Calm - N/A   Haze
9:21 AM -25.6 °F - -31.0 °F 76% 30.34 in 6.0 mi Calm Calm - N/A   Haze
10:00 AM -22.0 °F - -27.4 °F 76% 30.35 in 9.0 mi NNW 2.3 mph - N/A   Partly Cloudy
11:00 AM -18.4 °F - -23.8 °F 76% 30.36 in 9.0 mi Variable 2.3 mph - N/A   Clear
12:00 PM -14.8 °F - -20.2 °F 77% 30.35 in 9.0 mi Calm Calm - N/A   Clear
1:00 PM -11.2 °F - -18.4 °F 70% 30.34 in 9.0 mi Calm Calm - N/A   Clear
2:00 PM -7.6 °F -16.5 °F -18.4 °F 59% 30.33 in 9.0 mi WNW 3.5 mph - N/A   Clear
3:00 PM -7.6 °F -18.8 °F -16.6 °F 65% 30.32 in 9.0 mi WSW 4.6 mph - N/A   Clear
4:00 PM -9.4 °F -20.9 °F -16.6 °F 71% 30.32 in 9.0 mi SW 4.6 mph - N/A   Clear
5:00 PM -11.2 °F -23.0 °F -18.4 °F 70% 30.31 in 9.0 mi SSW 4.6 mph - N/A   Clear
6:00 PM -14.8 °F -24.8 °F -20.2 °F 77% 30.32 in 9.0 mi SW 3.5 mph - N/A   Clear
7:00 PM -16.6 °F -26.8 °F -22.0 °F 76% 30.31 in 9.0 mi South 3.5 mph - N/A   Clear
8:00 PM -18.4 °F -31.4 °F -23.8 °F 76% 30.31 in 9.0 mi SSW 4.6 mph - N/A   Clear
9:00 PM -18.4 °F -31.4 °F -23.8 °F 76% 30.30 in 9.0 mi South 4.6 mph - N/A   Clear
10:00 PM -18.4 °F -33.4 °F -23.8 °F 76% 30.29 in 9.0 mi South 5.8 mph - N/A   Clear
11:00 PM -18.4 °F -31.4 °F -23.8 °F 76% 30.28 in 9.0 mi South 4.6 mph - N/A   Clear